Location: Pinawa
(50.1500°N, 95.8830°W)
Time: 06:45:34
(UTC-05:00)

ISS - All Passes

Search period start: 25 March 2017 00:00
Search period end: 04 April 2017 00:00
Orbit: 399 x 409 km, 51.6° (Epoch: 25 March)

Date Brightness Start Highest point End Pass type
(mag) Time Alt. Az. Time Alt. Az. Time Alt. Az.
25 Mar - 01:12:25 10° W 01:15:41 67° N 01:18:58 10° E night (unlit)
25 Mar - 02:48:59 10° WNW 02:52:18 88° NNE 02:55:37 10° ESE night (unlit)
25 Mar - 04:25:41 10° W 04:28:32 27° SW 04:31:22 10° SSE night (unlit)
25 Mar - 22:43:51 10° SW 22:46:54 37° SSE 22:49:59 10° E night (unlit)
26 Mar - 00:19:58 10° W 00:23:15 75° N 00:26:34 10° ENE night (unlit)
26 Mar - 01:56:35 10° WNW 01:59:53 73° N 02:03:11 10° E night (unlit)
26 Mar - 03:33:08 10° W 03:36:17 41° SSW 03:39:24 10° SE night (unlit)
26 Mar - 21:51:56 10° SSW 21:54:39 24° SE 21:57:23 10° E visible
26 Mar - 23:27:33 10° WSW 23:30:51 87° SSE 23:34:08 10° ENE night (unlit)
27 Mar - 01:04:10 10° W 01:07:26 66° N 01:10:44 10° E night (unlit)
27 Mar - 02:40:41 10° WNW 02:43:57 61° SSW 02:47:12 10° ESE night (unlit)
27 Mar - 04:17:58 10° WSW 04:19:56 15° SW 04:21:52 10° S night (unlit)
27 Mar - 21:00:25 10° S 21:02:27 16° SE 21:04:30 10° E visible
27 Mar - 22:35:12 10° WSW 22:38:27 64° SSE 22:41:43 10° ENE visible
28 Mar - 00:11:42 10° W 00:14:58 65° N 00:18:15 10° E night (unlit)
28 Mar - 01:48:15 10° WNW 01:51:34 85° SSW 01:54:51 10° ESE night (unlit)
28 Mar - 03:25:02 10° W 03:27:43 23° SW 03:30:25 10° SSE night (unlit)
28 Mar - 21:42:58 10° SW 21:46:06 43° SSE 21:49:14 10° E visible
28 Mar - 23:19:13 10° W 23:22:30 72° N 23:25:47 10° ENE visible
29 Mar - 00:55:49 10° WNW 00:59:07 77° NNE 01:02:25 10° E night (unlit)
29 Mar - 02:32:24 10° W 02:35:28 35° SSW 02:38:30 10° SE night (unlit)
29 Mar - 20:50:56 10° SSW 20:53:47 28° SSE 20:56:39 10° E visible
29 Mar - 22:26:45 10° WSW 22:30:02 86° N 22:33:20 10° ENE visible
30 Mar - 00:03:21 10° WNW 00:06:38 67° N 00:09:55 10° E night (unlit)
30 Mar - 01:39:53 10° WNW 01:43:06 54° SSW 01:46:20 10° SE night (unlit)
30 Mar - 03:17:31 10° WSW 03:19:01 13° SW 03:20:31 10° SSW night (unlit)
30 Mar - 19:59:13 10° S 20:01:32 18° SE 20:03:51 10° E daylight
30 Mar - 21:34:20 10° WSW 21:37:35 72° SSE 21:40:52 10° ENE visible
30 Mar - 23:10:52 10° W 23:14:08 64° N 23:17:25 10° E visible
31 Mar - 00:47:24 10° WNW 00:50:42 77° SSW 00:53:59 10° ESE night (unlit)
31 Mar - 02:24:18 10° W 02:26:48 20° SW 02:29:18 10° SSE night (unlit)
31 Mar - 19:08:18 10° SSE 19:09:19 11° SE 19:10:20 10° ESE daylight
31 Mar - 20:42:01 10° SW 20:45:11 49° SSE 20:48:22 10° ENE visible
31 Mar - 22:18:21 10° W 22:21:37 69° N 22:24:54 10° ENE visible
31 Mar - 23:54:56 10° WNW 23:58:14 82° NNE 00:01:32 10° ESE visible
01 Apr - 01:31:34 10° W 01:34:31 31° SSW 01:37:28 10° SSE night (unlit)
01 Apr - 19:49:52 10° SSW 19:52:49 32° SSE 19:55:47 10° E daylight
01 Apr - 21:25:50 10° W 21:29:07 80° N 21:32:24 10° ENE visible
01 Apr - 23:02:27 10° WNW 23:05:43 70° N 23:09:00 10° E visible
02 Apr - 00:38:58 10° WNW 00:42:09 47° SSW 00:45:19 10° SE night (unlit)
02 Apr - 02:17:15 10° WSW 02:17:59 11° SW 02:18:42 10° SSW night (unlit)
02 Apr - 18:57:59 10° SSW 19:00:30 21° SE 19:03:02 10° E daylight
02 Apr - 20:33:21 10° WSW 20:36:37 80° SSE 20:39:53 10° ENE visible
02 Apr - 22:09:55 10° W 22:13:12 65° N 22:16:27 10° E visible
02 Apr - 23:46:27 10° WNW 23:49:43 69° SSW 23:52:59 10° ESE visible
03 Apr - 01:23:31 10° W 01:25:45 17° SW 01:28:01 10° S night (unlit)
03 Apr - 18:06:37 10° SSE 18:08:14 13° SE 18:09:51 10° ESE daylight
03 Apr - 19:40:57 10° SW 19:44:09 56° SSE 19:47:22 10° ENE daylight
03 Apr - 21:17:22 10° W 21:20:38 66° N 21:23:53 10° E visible
03 Apr - 22:53:56 10° WNW 22:57:14 88° NNE 23:00:31 10° ESE visible
